Regional Weather Roundup
Issued by NWS

Home | Current Version | Previous Version | Text Only | Print | Product List | Glossary On
Versions: 1 2 3 4 5 6 7 8 9 10 11 12 13 14 15 16 17 18 19 20 21 22 23 24 25 26 27 28 29 30 31 32 33 34 35 36 37 38 39 40 41 42 43 44 45 46 47 48 49 50
000
ASUS46 KSEW 051610
RWRWA

WASHINGTON REGIONAL WEATHER ROUNDUP
NATIONAL WEATHER SERVICE SEATTLE WA
800 AM PST THU MAR 05 2015

NOTE:"FAIR" INDICATES FEW OR NO CLOUDS BELOW 12,000 FEET WITH NO
SIGNIFICANT WEATHER AND/OR OBSTRUCTIONS TO VISIBILITY.

WAZ505-507>509-051700-
SEATTLE, TACOMA, EVERETT, AND VICINITY

CITY           SKY/WX    TMP DP  RH WIND       PRES   REMARKS
EVERETT        PTSUNNY   40  29  64 CALM      30.35R
BOEING FIELD   PTSUNNY   39  31  72 SE5       30.37R
RENTON         PTSUNNY   37  32  82 E3        30.36R
SEATAC AIRPORT CLOUDY    39  28  64 SE5       30.35R
JBLM-MCCHORD   PTSUNNY   31  31  99 S1        30.35R
PUYALLUP       FAIR      32  32 100 CALM      30.35R
BREMERTON        N/A     34  32  93 CALM      30.37R
JBLM-FT LEWIS  PTSUNNY   31  31  98 SE3       30.35R
TACOMA NARROWS PTSUNNY   39  36  89 CALM      30.35R
$$

WAZ001-503-506-510-514-515-051700-
NORTH INTERIOR

CITY           SKY/WX    TMP DP  RH WIND       PRES   REMARKS
BELLINGHAM     MOSUNNY   35  29  78 CALM      30.35R
FRIDAY HARBOR  PTSUNNY   37  35  92 CALM      30.36R
EASTSOUND      MOSUNNY   37  34  87 CALM      30.34R
PORT ANGELES   PTSUNNY   38  33  82 SW5       30.34R
NAS WHIDBEY    CLOUDY    38  32  79 E8        30.37R
ARLINGTON      PTSUNNY   30  27  86 CALM      30.38R
BURLINGTON     SUNNY     36  32  87 CALM      30.37R
$$

WAZ020-022-039-040-504-511-512-051700-
SOUTHWEST INTERIOR

CITY           SKY/WX    TMP DP  RH WIND       PRES   REMARKS
SHELTON        PTSUNNY   31  29  92 CALM      30.33R
OLYMPIA        PTSUNNY   32  29  88 CALM      30.36R
CHEHALIS       FAIR      32  32 100 CALM      30.36R
KELSO          PTSUNNY   34  28  80 CALM      30.41R
VANCOUVER      MOSUNNY   35  31  85 CALM      30.37R
SCAPPOOSE, OR  MOSUNNY   33  30  88 CALM      30.36R
PORTLAND, OR   PTSUNNY   38  34  85 CALM      30.37R
$$

WAZ021-516-517-051700-
WASHINGTON COAST

CITY           SKY/WX    TMP DP  RH WIND       PRES   REMARKS
FORKS          PTSUNNY   33  32  96 CALM      30.35R
HOQUIAM        PTSUNNY   35  33  92 E8        30.35R
ASTORIA, OR    MOSUNNY   36  33  89 CALM      30.34R
$$

WAZ019-023-024-040-518-519-051700-
CASCADE MOUNTAINS AND COLUMBIA GORGE

CITY           SKY/WX    TMP DP  RH WIND       PRES   REMARKS
TROUTDALE, OR  MOSUNNY   35  30  82 CALM      30.36R
THE DALLES, OR MOSUNNY   32  27  81 CALM      30.36R
$$

WAZ026-027-041>044-520-521-051700-
EAST SLOPES

CITY           SKY/WX    TMP DP  RH WIND       PRES   REMARKS
OMAK           MOSUNNY   30  21  69 CALM      30.34R
WENATCHEE      PTSUNNY   35  26  69 CALM      30.32R
ELLENSBURG     PTSUNNY   32  25  75 CALM      30.29R
YAKIMA         PTSUNNY   32  26  78 CALM      30.32R
$$

WAZ028-034-035-051700-
COLUMBIA BASIN

CITY           SKY/WX    TMP DP  RH WIND       PRES   REMARKS
EPHRATA        PTSUNNY   35  24  64 N9        30.31R
MOSES LAKE     PTSUNNY   30  22  72 N5        30.33R
PASCO          MOSUNNY   28  23  81 CALM      30.36R
HERMISTON, OR  PTSUNNY   32  23  69 CALM      30.33R
$$

WAZ036>038-051700-
NORTHEAST WASHINGTON

CITY           SKY/WX    TMP DP  RH WIND       PRES   REMARKS
SPOKANE GEIGER PTSUNNY   30  20  66 NE5       30.30R
SPOKANE FELTS  MOSUNNY   29  19  66 E3        30.33R
FAIRCHILD AFB  MOSUNNY   30  21  67 NE6       30.29R
COEURDALENE,ID SUNNY     30  19  64 NE10      30.32R WCI  21
DEER PARK      SUNNY     31  21  66 MISG      30.32R
$$

WAZ029>033-051700-
SOUTHEAST WASHINGTON

CITY           SKY/WX    TMP DP  RH WIND       PRES   REMARKS
PULLMAN        PTSUNNY   34  16  47 E12       30.32R WCI  25
LEWISTON, ID   PTSUNNY   31  21  66 N3        30.36R
WALLA WALLA    PTSUNNY   40  23  50 CALM      30.30R
PENDLETON, OR  MOSUNNY   36  19  50 CALM      30.29R
$$


USA.gov is the U.S. government's official web portal to all federal, state and local government web resources and services.